Volver al catálogo

STARLINK-38255

ActivoComunicacionesSSO
NORAD 100269·PAYLOAD·🇺🇸 United States

Lanzado Aug 8, 2026 desde Vandenberg Space Force Base

Loading…

Próximos Pases (próximas 24 horas)

TLE

ActualizadoSource: Space-Track

Época: Sep 14, 2026, 02:31 UTC

1 A0269U 26181Z   26257.10534264  .00129147  00000-0  85237-3 0  9994
2 A0269  97.2834 300.3828 0001447  93.5346 266.6085 15.75225965  6941

Sigue STARLINK-38255 en tiempo real con AllMySat

Download on the App Store